Location: Powder Track
(41.8531°N, 72.3584°W)
Time: 23:35:43
(UTC+00:00)

Vanguard 1 Rocket - Pass Details

Date: 10 August 2021
Orbit: 650 x 4226 km, 34.3° (Epoch: 19 September)

Event Time Altitude Azimuth Distance (km) Brightness Sun altitude
Rises 12:30:53 0° 238° (WSW) 8,344 11.9 28.0°
Reaches altitude 10° 12:36:42 10° 235° (SW) 7,414 11.7 29.1°
Maximum altitude 13:01:48 60° 164° (SSE) 3,927 11.3 33.7°
Drops below altitude 10° 13:18:05 10° 90° (E) 5,108 12.5 36.7°
Sets 13:21:13 0° 86° (E) 5,741 12.4 37.3°
